Regional Weather Roundup
Issued by NWS

Home | Current Version | Previous Version | Text Only | Print | Product List | Glossary Off
Versions: 1 2 3 4 5 6 7 8 9 10 11 12 13 14 15 16 17 18 19 20 21 22 23 24 25 26 27 28 29 30 31 32 33 34 35 36 37 38 39 40 41 42 43 44 45 46 47 48 49 50

000
ASUS43 KLMK 312310
RWRKY
KENTUCKY REGIONAL WEATHER ROUNDUP
NATIONAL WEATHER SERVICE LOUISVILLE KY
700 PM EDT TUE MAY 31 2016

NOTE "FAIR" INDICATES FEW OR NO CLOUDS BELOW 12,000 FEET
WITH NO SIGNIFICANT WEATHER AND/OR OBSTRUCTIONS TO VISIBILITY.

KYZ001>023-026-027-061>063-070>075-010000-
WESTERN AND SOUTH CENTRAL KENTUCKY

CITY           SKY/WX    TMP DP  RH WIND       PRES   REMARKS
PADUCAH        MOSUNNY   84  65  52 CALM      29.87F
HENDERSON      MOSUNNY   86  59  39 CALM      29.87F
OWENSBORO      MOSUNNY   86  62  44 E8        29.90F
HOPKINSVILLE   SUNNY     85  63  48 VRB5      29.88F
BOWLING GREEN  SUNNY     85  62  46 E7        29.91F
GLASGOW        SUNNY     84  58  41 E3        29.92S
$$

KYZ024-025-028>034-038-045-046-053-010000-
NORTH CENTRAL KENTUCKY

CITY           SKY/WX    TMP DP  RH WIND       PRES   REMARKS
LOUISVILLE/SDF PTSUNNY   85  56  37 SE10      29.92S
LOUISVILLE/LOU MOSUNNY   84  58  40 SE8       29.92F
FORT KNOX      MOSUNNY   83  60  44 NE7       29.91F
$$

KYZ035>037-039>044-047>052-055>060-089>105-010000-
NORTHEAST KENTUCKY

CITY           SKY/WX    TMP DP  RH WIND       PRES   REMARKS
LEXINGTON      MOSUNNY   82  58  43 NE8       29.96F
COVINGTON      CLOUDY    80  60  50 E3        29.95F
FRANKFORT      MOSUNNY   83  56  39 E9        29.94F
$$

KYZ054-064>069-076>088-106>120-010000-
SOUTHEAST KENTUCKY

CITY           SKY/WX    TMP DP  RH WIND       PRES   REMARKS
JACKSON        SUNNY     81  61  50 CALM      29.97F
LONDON         CLOUDY    80  60  50 NE6       29.95F
SOMERSET       MOSUNNY   79  61  53 NE7       29.95F
MIDDLESBORO    MOSUNNY   80  66  62 CALM      29.94F
MONTICELLO     CLOUDY    81  66  60 N13       29.96S
$$




USA.gov is the U.S. government's official web portal to all federal, state and local government web resources and services.